Weather History for NW Arkansas Airport, AR

Change the Weather History Date:

Monday, March 4, 2013

  Actual Average Record
Temperature  
Mean Temperature 54 °F -  
Max Temperature 64 °F - - ()
Min Temperature 42 °F - - ()
Degree Days  
Heating Degree Days 10    
Growing Degree Days 4 (Base 50)    
Moisture  
Dew Point 40 °F    
Average Humidity 62    
Maximum Humidity 86    
Minimum Humidity 48    
Precipitation  
Precipitation 0.00 in - - ()
Sea Level Pressure  
Sea Level Pressure 29.67 in    
Wind  
Wind Speed 11 mph (South)    
Max Wind Speed 21 mph    
Max Gust Speed 25 mph    
Visibility 10 miles    
Events      
T = Trace of Precipitation, MM = Missing Value Source: NWS Daily Summary

Daily Weather History Graph

Daily Weather History Graph

Search for Another Location

Airport:

Trip Planner

Search our weather history database for the weather conditions in past years. The results will help you decide how hot, cold, wet, or windy it might be!

Date:

Astronomy

Mar. 04, 2013 Rise Set
Actual Time 6:43 AM CST 6:15 PM CST
Civil Twilight 6:17 AM CST 6:40 PM CST
Nautical Twilight 5:47 AM CST 7:10 PM CST
Astronomical Twilight 5:17 AM CST 7:40 PM CST
Moon 12:46 AM CST (3/4) 11:04 AM CST (3/4)
Length of Visible Light 12h 23m
Length of Day
11h 31m
Waning Gibbous, 52% of the Moon is Illuminated
Mar 4
Waning Gibbous
Mar 4
Last Quarter
Mar 11
New
Mar 19
First Quarter
Mar 27
Full

Hourly Weather History & Observations

Time (CST) Temp. Windchill Dew Point Humidity Pressure Visibility Wind Dir Wind Speed Gust Speed Precip Events Conditions
12:53 AM 45.0 °F 38.9 °F 32.0 °F 60% 29.74 in 10.0 mi SSE 12.7 mph - N/A   Clear
1:53 AM 46.0 °F 40.6 °F 32.0 °F 58% 29.71 in 10.0 mi SSE 11.5 mph - N/A   Clear
2:53 AM 46.9 °F - 33.1 °F 59% 29.67 in 10.0 mi SSE 10.4 mph - N/A   Clear
3:53 AM 48.9 °F - 34.0 °F 56% 29.65 in 10.0 mi South 13.8 mph - N/A   Clear
4:53 AM 45.0 °F 40.6 °F 34.0 °F 65% 29.67 in 10.0 mi SSE 8.1 mph - N/A   Clear
5:53 AM 48.0 °F - 35.1 °F 61% 29.66 in 10.0 mi South 13.8 mph - N/A   Clear
6:53 AM 48.0 °F - 35.1 °F 61% 29.65 in 10.0 mi South 15.0 mph - N/A   Clear
7:53 AM 46.9 °F - 37.0 °F 68% 29.66 in 10.0 mi SSE 10.4 mph - N/A   Clear
8:53 AM 52.0 °F - 37.9 °F 59% 29.67 in 10.0 mi South 11.5 mph - N/A   Clear
9:53 AM 55.9 °F - 39.9 °F 55% 29.66 in 10.0 mi South 16.1 mph - N/A   Clear
10:53 AM 59.0 °F - 41.0 °F 51% 29.64 in 10.0 mi South 16.1 mph 24.2 mph N/A   Clear
11:53 AM 60.1 °F - 42.1 °F 51% 29.64 in 10.0 mi South 15.0 mph 18.4 mph N/A   Clear
12:53 PM 62.1 °F - 43.0 °F 50% 29.60 in 10.0 mi South 10.4 mph 18.4 mph N/A   Clear
1:53 PM 63.0 °F - 43.0 °F 48% 29.59 in 10.0 mi SSW 10.4 mph 20.7 mph N/A   Clear
2:53 PM 64.0 °F - 44.1 °F 48% 29.60 in 10.0 mi SSW 9.2 mph - N/A   Mostly Cloudy
3:53 PM 62.1 °F - 45.0 °F 53% 29.62 in 10.0 mi SSE 8.1 mph - N/A   Overcast
4:53 PM 61.0 °F - 46.0 °F 58% 29.64 in 10.0 mi SSE 10.4 mph - N/A   Overcast
5:53 PM 57.0 °F - 46.0 °F 67% 29.65 in 10.0 mi SSE 5.8 mph - N/A   Partly Cloudy
6:53 PM 54.0 °F - 45.0 °F 72% 29.68 in 10.0 mi Calm Calm - N/A   Clear
7:53 PM 50.0 °F - 44.1 °F 80% 29.69 in 10.0 mi Calm Calm - N/A   Clear
8:53 PM 52.0 °F - 45.0 °F 77% 29.71 in 10.0 mi SSE 3.5 mph - N/A   Clear
9:53 PM 48.0 °F - 44.1 °F 86% 29.74 in 10.0 mi NW 11.5 mph 18.4 mph N/A   Clear
10:53 PM 46.0 °F 38.3 °F 39.0 °F 76% 29.79 in 10.0 mi NNW 20.7 mph 25.3 mph N/A   Clear
11:53 PM 42.1 °F 33.6 °F 34.0 °F 73% 29.85 in 10.0 mi North 18.4 mph - N/A   Clear